Location: Goettingen
(51.5300°N, 9.9433°E)
Time: 02:42:03
(UTC+01:00)

ISS - Pass Details

Date: 21 May 2017
Orbit: 402 x 406 km, 51.6° (Epoch: 16 December)

Event Time Altitude Azimuth Distance (km) Brightness Sun altitude
Exits shadow 03:00:48 - 273° (W) 1,714 -0.9 -14.7°
Reaches altitude 10° 03:01:20 10° 273° (W) 1,495 -1.2 -14.7°
Maximum altitude 03:04:41 86° 357° (N) 421 -3.8 -14.5°
Drops below altitude 10° 03:08:01 10° 92° (E) 1,483 -0.7 -14.3°
Sets 03:10:06 0° 93° (E) 2,340 0.4 -14.1°
